W5CWT-13 Weather Reports


Display with metric or nautical units.
time (UTC)temp
F
wind
direction
speed
MPH
gust
MPH
rain 1hr
in
rain 24hr
in
rain mn
in
humidity
%
barometer
mb
20191213234021 58 0.0 0.0 0.00 0.00 0.00 73 1011.5
20191213233532 58 22 0.0 1.0 0.00 0.00 0.00 72 1011.6
20191213233025 59 0.0 0.0 0.00 0.00 0.00 71 1011.6
20191213232518 60 0.0 0.0 0.00 0.00 0.00 69 1011.6
20191213232028 60 0.0 0.0 0.00 0.00 0.00 68 1011.6
20191213231521 61 270 0.0 1.0 0.00 0.00 0.00 67 1011.6
20191213231031 61 265 2.0 4.0 0.00 0.00 0.00 66 1011.5
20191213230524 62 270 3.0 4.0 0.00 0.00 0.00 65 1011.5
20191213230017 63 266 3.0 5.0 0.00 0.00 0.00 63 1011.6
20191213225527 63 275 3.0 4.0 0.00 0.00 0.00 62 1011.6
20191213225020 64 268 4.0 6.0 0.00 0.00 0.00 61 1011.6
20191213224531 64 272 5.0 7.0 0.00 0.00 0.00 60 1011.6
20191213224023 65 283 4.0 6.0 0.00 0.00 0.00 60 1011.6
20191213223516 65 239 3.0 4.0 0.00 0.00 0.00 59 1011.4
20191213223026 65 247 4.0 6.0 0.00 0.00 0.00 59 1011.4
20191213222519 66 235 3.0 6.0 0.00 0.00 0.00 58 1011.2
20191213222030 66 269 4.0 6.0 0.00 0.00 0.00 57 1011.1
20191213221522 66 238 4.0 5.0 0.00 0.00 0.00 57 1011.1
20191213221016 65 190 4.0 6.0 0.00 0.00 0.00 58 1011.0
20191213220526 66 194 5.0 7.0 0.00 0.00 0.00 57 1011.0
20191213220019 66 230 4.0 5.0 0.00 0.00 0.00 56 1011.0
20191213215529 66 242 5.0 7.0 0.00 0.00 0.00 56 1011.0
20191213215021 67 257 4.0 6.0 0.00 0.00 0.00 55 1010.8
20191213214532 67 235 4.0 7.0 0.00 0.00 0.00 56 1010.7
20191213214026 67 244 5.0 8.0 0.00 0.00 0.00 56 1010.7
20191213213518 67 261 5.0 7.0 0.00 0.00 0.00 56 1010.7
20191213213028 68 277 4.0 6.0 0.00 0.00 0.00 55 1010.7
20191213212521 67 274 5.0 8.0 0.00 0.00 0.00 56 1010.6
20191213212031 66 230 4.0 7.0 0.00 0.00 0.00 57 1010.6
20191213211524 67 270 5.0 7.0 0.00 0.00 0.00 56 1010.6
20191213211017 67 222 4.0 5.0 0.00 0.00 0.00 58 1010.5
20191213210527 66 279 5.0 8.0 0.00 0.00 0.00 58 1010.5
20191213210020 66 186 5.0 9.0 0.00 0.00 0.00 58 1010.6
20191213205524 66 226 5.0 7.0 0.00 0.00 0.00 58 1010.6
20191213205023 67 229 6.0 8.0 0.00 0.00 0.00 58 1010.6
20191213204516 67 286 5.0 8.0 0.00 0.00 0.00 56 1010.6
20191213204020 67 240 5.0 7.0 0.00 0.00 0.00 58 1010.6
20191213203519 66 199 5.0 6.0 0.00 0.00 0.00 59 1010.5
20191213203018 68 252 5.0 6.0 0.00 0.00 0.00 57 1010.5
20191213202516 67 224 3.0 4.0 0.00 0.00 0.00 58 1010.6
20191213202033 67 220 5.0 7.0 0.00 0.00 0.00 58 1010.6
20191213201525 66 197 3.0 6.0 0.00 0.00 0.00 61 1010.6
20191213201018 66 206 4.0 6.0 0.00 0.00 0.00 61 1010.7
20191213200523 66 214 5.0 6.0 0.00 0.00 0.00 62 1010.7
20191213200016 65 195 4.0 5.0 0.00 0.00 0.00 62 1010.8
20191213195527 66 219 4.0 6.0 0.00 0.00 0.00 61 1010.8
20191213195020 66 194 4.0 6.0 0.00 0.00 0.00 62 1010.9
20191213194530 66 199 5.0 8.0 0.00 0.00 0.00 61 1011.0
20191213194024 67 213 5.0 8.0 0.00 0.00 0.00 59 1011.0
20191213193516 67 243 5.0 7.0 0.00 0.00 0.00 60 1011.1
20191213193028 67 207 6.0 8.0 0.00 0.00 0.00 61 1011.1
20191213192520 67 254 5.0 7.0 0.00 0.00 0.00 60 1011.0
20191213192032 67 207 4.0 6.0 0.00 0.00 0.00 60 1011.0
20191213191523 66 185 6.0 9.0 0.00 0.00 0.00 62 1011.1
20191213191017 66 202 7.0 9.0 0.00 0.00 0.00 62 1011.3
20191213190527 66 227 5.0 9.0 0.00 0.00 0.00 62 1011.3
20191213190019 65 207 5.0 9.0 0.00 0.00 0.00 63 1011.6
20191213185530 65 240 5.0 7.0 0.00 0.00 0.00 64 1011.6
20191213185023 64 221 5.0 7.0 0.00 0.00 0.00 65 1011.7
20191213184515 64 212 6.0 11.0 0.00 0.00 0.00 65 1011.9
20191213184027 65 205 5.0 9.0 0.00 0.00 0.00 64 1011.9
20191213183520 65 207 5.0 9.0 0.00 0.00 0.00 64 1012.2
20191213183031 65 192 6.0 12.0 0.00 0.00 0.00 65 1012.2
20191213182523 66 191 7.0 9.0 0.00 0.00 0.00 64 1012.5
20191213182017 66 237 7.0 11.0 0.00 0.00 0.00 64 1012.7
20191213181527 66 210 5.0 6.0 0.00 0.00 0.00 66 1012.8
20191213181020 64 189 5.0 7.0 0.00 0.00 0.00 68 1012.9
20191213180530 65 197 5.0 8.0 0.00 0.00 0.00 68 1012.9
20191213180023 65 214 4.0 6.0 0.00 0.00 0.00 68 1013.3
20191213175516 63 237 5.0 9.0 0.00 0.00 0.00 70 1013.4
20191213175027 62 196 5.0 7.0 0.00 0.00 0.00 72 1013.5
20191213174519 62 182 6.0 9.0 0.00 0.00 0.00 73 1013.5
20191213174030 63 189 5.0 6.0 0.00 0.00 0.00 72 1013.6
20191213173523 62 172 5.0 7.0 0.00 0.00 0.00 73 1013.8
20191213173016 61 197 6.0 7.0 0.00 0.00 0.00 74 1013.8
20191213172526 61 188 5.0 7.0 0.00 0.00 0.00 75 1014.1
20191213172018 60 199 6.0 8.0 0.00 0.00 0.00 76 1014.2
20191213171529 60 173 6.0 8.0 0.00 0.00 0.00 76 1014.2
20191213171022 60 178 5.0 7.0 0.00 0.00 0.00 77 1014.4
20191213170526 60 203 6.0 9.0 0.00 0.00 0.00 77 1014.4
20191213170025 60 169 6.0 8.0 0.00 0.00 0.00 77 1014.4
20191213165518 60 179 5.0 8.0 0.00 0.00 0.00 78 1014.4
20191213165022 59 204 5.0 8.0 0.00 0.00 0.00 78 1014.4
20191213164521 58 185 6.0 9.0 0.00 0.00 0.00 79 1014.4
20191213164019 58 184 5.0 8.0 0.00 0.00 0.00 79 1014.5
20191213163518 58 184 6.0 7.0 0.00 0.00 0.00 79 1014.7
20191213163019 58 204 6.0 11.0 0.00 0.00 0.00 79 1014.7
20191213162527 57 204 5.0 8.0 0.00 0.00 0.00 80 1014.9
20191213162020 57 192 5.0 8.0 0.00 0.00 0.00 81 1014.9
20191213161531 56 185 6.0 10.0 0.00 0.00 0.00 81 1014.9
20191213161024 56 185 5.0 10.0 0.00 0.00 0.00 81 1014.9
20191213160515 55 156 6.0 9.0 0.00 0.00 0.00 82 1014.9
20191213160026 55 198 5.0 7.0 0.00 0.00 0.00 83 1015.4
20191213155531 55 172 6.0 10.0 0.00 0.00 0.00 84 1015.4
20191213155024 55 156 5.0 8.0 0.00 0.00 0.00 84 1015.3
20191213154516 54 172 5.0 9.0 0.00 0.00 0.00 84 1015.2
20191213154027 54 190 5.0 6.0 0.00 0.00 0.00 84 1015.2
20191213153520 53 193 4.0 6.0 0.00 0.00 0.00 84 1015.2
20191213153031 53 194 5.0 8.0 0.00 0.00 0.00 84 1015.2
20191213152523 52 177 6.0 10.0 0.00 0.00 0.00 83 1015.3
20191213152016 52 170 6.0 9.0 0.00 0.00 0.00 81 1015.4
20191213151526 51 180 5.0 7.0 0.00 0.00 0.00 81 1015.4
20191213151019 51 164 5.0 9.0 0.00 0.00 0.00 81 1015.6
20191213150529 50 165 6.0 11.0 0.00 0.00 0.00 81 1015.6
20191213150022 50 206 6.0 7.0 0.00 0.00 0.00 81 1015.7
20191213145516 50 186 5.0 7.0 0.00 0.00 0.00 81 1015.7
20191213145027 50 180 4.0 7.0 0.00 0.00 0.00 81 1015.7
20191213144519 50 178 3.0 5.0 0.00 0.00 0.00 81 1015.8
20191213144029 49 211 3.0 4.0 0.00 0.00 0.00 82 1015.8
20191213143522 48 181 2.0 3.0 0.00 0.00 0.00 84 1015.8
20191213143032 47 201 2.0 3.0 0.00 0.00 0.00 85 1015.8
20191213142525 47 208 2.0 3.0 0.00 0.00 0.00 86 1015.8
20191213142018 47 170 3.0 4.0 0.00 0.00 0.00 86 1015.8
20191213141528 46 162 3.0 5.0 0.00 0.00 0.00 86 1015.8
20191213141022 46 173 3.0 5.0 0.00 0.00 0.00 86 1015.9
20191213140532 46 173 2.0 3.0 0.00 0.00 0.00 87 1015.9
20191213140026 45 0.0 0.0 0.00 0.00 0.00 88 1016.2
20191213135518 45 168 1.0 2.0 0.00 0.00 0.00 89 1016.2
20191213135028 45 186 1.0 2.0 0.00 0.00 0.00 88 1016.2
20191213134520 45 0.0 0.0 0.00 0.00 0.00 88 1016.2
20191213134031 45 175 0.0 2.0 0.00 0.00 0.00 88 1016.2
20191213133524 45 0.0 0.0 0.00 0.00 0.00 88 1016.1
20191213133017 45 0.0 0.0 0.00 0.00 0.00 88 1016.1
20191213132527 45 0.0 0.0 0.00 0.00 0.00 88 1016.0
20191213132019 45 187 1.0 2.0 0.00 0.00 0.00 88 1015.9
20191213131524 45 180 0.0 2.0 0.00 0.00 0.00 87 1016.0
20191213131023 45 0.0 0.0 0.00 0.00 0.00 87 1016.1
20191213130515 45 180 0.0 2.0 0.00 0.00 0.00 86 1016.1
20191213130020 45 199 1.0 2.0 0.00 0.00 0.00 86 1016.1
20191213125519 46 182 2.0 3.0 0.00 0.00 0.00 86 1016.1
20191213125017 46 183 2.0 3.0 0.00 0.00 0.00 86 1016.2
20191213124516 46 194 2.0 3.0 0.00 0.00 0.00 86 1016.3
20191213124033 46 179 2.0 4.0 0.00 0.00 0.00 86 1016.2
20191213123526 46 191 2.0 2.0 0.00 0.00 0.00 86 1016.2
20191213123018 45 180 2.0 3.0 0.00 0.00 0.00 85 1016.2
20191213122530 45 141 2.0 2.0 0.00 0.00 0.00 85 1016.2
20191213122022 46 158 1.0 2.0 0.00 0.00 0.00 85 1016.3
20191213121533 46 177 2.0 3.0 0.00 0.00 0.00 85 1016.3
20191213121025 46 199 2.0 3.0 0.00 0.00 0.00 85 1016.4
20191213120518 45 172 3.0 4.0 0.00 0.00 0.00 85 1016.4
20191213120029 45 180 2.0 3.0 0.00 0.00 0.00 84 1016.7
20191213115521 45 171 2.0 3.0 0.00 0.00 0.00 84 1016.7
20191213115033 46 174 2.0 3.0 0.00 0.00 0.00 84 1016.7
20191213114524 46 186 2.0 3.0 0.00 0.00 0.00 84 1016.8
20191213114017 46 180 3.0 4.0 0.00 0.00 0.00 84 1016.8
20191213113528 46 178 3.0 4.0 0.00 0.00 0.00 84 1016.8
20191213113020 46 186 3.0 3.0 0.00 0.00 0.00 84 1016.8
20191213112531 46 175 2.0 3.0 0.00 0.00 0.00 84 1016.7
20191213112023 46 194 3.0 4.0 0.00 0.00 0.00 84 1016.7
20191213111516 46 186 2.0 3.0 0.00 0.00 0.00 84 1016.7
20191213111027 45 180 2.0 3.0 0.00 0.00 0.00 85 1016.7
20191213110520 45 180 2.0 3.0 0.00 0.00 0.00 86 1016.7
20191213110030 45 177 2.0 2.0 0.00 0.00 0.00 86 1016.8
20191213105523 45 132 2.0 3.0 0.00 0.00 0.00 86 1016.8
20191213105016 45 167 2.0 3.0 0.00 0.00 0.00 86 1016.8
20191213104526 45 173 2.0 4.0 0.00 0.00 0.00 86 1017.0
20191213104019 44 164 2.0 3.0 0.00 0.00 0.00 87 1017.0
20191213103529 43 169 2.0 2.0 0.00 0.00 0.00 88 1017.3
20191213103024 43 144 1.0 2.0 0.00 0.00 0.00 89 1017.3
20191213102516 43 142 1.0 2.0 0.00 0.00 0.00 89 1017.5
20191213102026 43 114 2.0 2.0 0.00 0.00 0.00 89 1017.6
20191213101519 43 131 1.0 2.0 0.00 0.00 0.00 89 1017.6
20191213101029 43 140 2.0 2.0 0.00 0.00 0.00 90 1017.7
20191213100522 43 119 1.0 2.0 0.00 0.00 0.00 90 1017.7
20191213100032 43 152 2.0 2.0 0.00 0.00 0.00 90 1017.9
20191213095525 42 136 1.0 2.0 0.00 0.00 0.00 91 1017.9
20191213095018 42 123 0.0 1.0 0.00 0.00 0.00 91 1018.0
20191213094528 42 0.0 0.0 0.00 0.00 0.00 91 1018.1
20191213094021 41 0.0 0.0 0.00 0.00 0.00 91 1018.1
20191213093526 41 0.0 0.0 0.00 0.00 0.00 91 1018.1
20191213093024 41 0.0 0.0 0.00 0.00 0.00 91 1018.1
20191213092517 41 0.0 0.0 0.00 0.00 0.00 91 1018.0
20191213092021 41 0.0 0.0 0.00 0.00 0.00 91 1018.0
20191213091519 41 0.0 0.0 0.00 0.00 0.00 91 1018.0
20191213091019 41 103 0.0 2.0 0.00 0.00 0.00 91 1018.0
20191213090517 41 114 1.0 2.0 0.00 0.00 0.00 91 1018.0
20191213090017 41 131 1.0 2.0 0.00 0.00 0.00 91 1018.2
20191213085526 41 97 0.0 1.0 0.00 0.00 0.00 91 1018.2
20191213085020 41 136 1.0 2.0 0.00 0.00 0.00 91 1018.3
20191213084530 41 139 1.0 2.0 0.00 0.00 0.00 91 1018.3
20191213084023 41 137 1.0 2.0 0.00 0.00 0.00 92 1018.4
20191213083516 41 104 1.0 2.0 0.00 0.00 0.00 92 1018.6
20191213083026 40 120 1.0 2.0 0.00 0.00 0.00 92 1018.6
20191213082519 40 118 1.0 2.0 0.00 0.00 0.00 93 1018.7
20191213082030 40 115 1.0 2.0 0.00 0.00 0.00 93 1018.7
20191213081522 40 131 1.0 2.0 0.00 0.00 0.00 93 1018.8
20191213081033 40 127 1.0 2.0 0.00 0.00 0.00 93 1018.9
20191213080526 40 124 1.0 2.0 0.00 0.00 0.00 94 1018.9
20191213080019 40 120 0.0 1.0 0.00 0.00 0.00 94 1018.9
20191213075530 40 136 0.0 1.0 0.00 0.00 0.00 95 1018.9
20191213075022 40 45 0.0 1.0 0.00 0.00 0.00 95 1018.9
20191213074516 40 127 1.0 2.0 0.00 0.00 0.00 95 1019.0
20191213074026 39 111 0.0 2.0 0.00 0.00 0.00 95 1019.0
20191213073519 39 88 2.0 2.0 0.00 0.00 0.00 95 1019.3
20191213073029 39 0.0 0.0 0.00 0.00 0.00 95 1019.3
20191213072522 39 0.0 0.0 0.00 0.00 0.00 95 1019.4
20191213072033 39 0.0 0.0 0.00 0.00 0.00 95 1019.4
20191213071520 39 101 1.0 2.0 0.00 0.00 0.00 95 1019.4
20191213071031 40 94 1.0 2.0 0.00 0.00 0.00 94 1019.5
20191213070523 40 97 0.0 1.0 0.00 0.00 0.00 93 1019.5
20191213070016 40 0.0 0.0 0.00 0.00 0.00 93 1019.7
20191213065527 40 0.0 0.0 0.00 0.00 0.00 93 1019.7
20191213065019 40 90 0.0 1.0 0.00 0.00 0.00 93 1019.8
20191213064530 40 95 1.0 2.0 0.00 0.00 0.00 93 1019.8
20191213064024 40 88 0.0 2.0 0.00 0.00 0.00 93 1019.8
20191213063516 40 0.0 0.0 0.00 0.00 0.00 93 1019.8
20191213063028 41 0.0 0.0 0.00 0.00 0.00 93 1019.8
20191213062520 41 0.0 0.0 0.00 0.00 0.00 93 1019.9
20191213062030 41 0.0 0.0 0.00 0.00 0.00 93 1019.9
20191213061522 41 0.0 0.0 0.00 0.00 0.00 92 1020.0
20191213061015 41 0.0 0.0 0.00 0.00 0.00 92 1020.0
20191213060526 41 0.0 0.0 0.00 0.00 0.00 92 1020.0
20191213060018 41 0.0 0.0 0.00 0.00 0.00 91 1020.0
20191213055530 41 0.0 0.0 0.00 0.00 0.00 91 1020.0
20191213055022 41 0.0 0.0 0.00 0.00 0.00 91 1020.1
20191213054527 41 0.0 0.0 0.00 0.00 0.00 91 1020.1
20191213054026 41 0.0 0.0 0.00 0.00 0.00 90 1020.2
20191213053518 42 0.0 0.0 0.00 0.00 0.00 90 1020.3
20191213053023 42 0.0 0.0 0.00 0.00 0.00 90 1020.3
20191213052521 41 0.0 0.0 0.00 0.00 0.00 89 1020.4
20191213052021 42 0.0 0.0 0.00 0.00 0.00 88 1020.4
20191213051519 42 0.0 0.0 0.00 0.00 0.00 88 1020.4
20191213051018 42 0.0 0.0 0.00 0.00 0.00 88 1020.4
20191213050517 42 0.0 0.0 0.00 0.00 0.00 87 1020.4
20191213050016 43 0.0 0.0 0.00 0.00 0.00 88 1020.4
20191213045520 43 0.0 0.0 0.00 0.00 0.00 88 1020.4
20191213045032 43 0.0 0.0 0.00 0.00 0.00 88 1020.3
20191213044524 43 0.0 0.0 0.00 0.00 0.00 88 1020.3
20191213044017 43 0.0 0.0 0.00 0.00 0.00 88 1020.3
20191213043527 43 0.0 0.0 0.00 0.00 0.00 88 1020.3
20191213043020 43 0.0 0.0 0.00 0.00 0.00 88 1020.3
20191213042531 43 0.0 0.0 0.00 0.00 0.00 88 1020.3
20191213042023 43 0.0 0.0 0.00 0.00 0.00 88 1020.3
20191213041516 43 0.0 0.0 0.00 0.00 0.00 87 1020.4
20191213041027 43 0.0 0.0 0.00 0.00 0.00 87 1020.4
20191213040520 43 0.0 0.0 0.00 0.00 0.00 87 1020.4
20191213040030 43 0.0 0.0 0.00 0.00 0.00 87 1020.6
20191213035523 43 0.0 0.0 0.00 0.00 0.00 85 1020.6
20191213035015 43 0.0 0.0 0.00 0.00 0.00 85 1020.6
20191213034527 43 0.0 0.0 0.00 0.00 0.00 85 1020.6
20191213034019 44 0.0 0.0 0.00 0.00 0.00 85 1020.6
20191213033531 44 0.0 0.0 0.00 0.00 0.00 84 1020.6
20191213033023 44 0.0 0.0 0.00 0.00 0.00 84 1020.6
20191213032516 44 0.0 0.0 0.00 0.00 0.00 83 1020.6
20191213032027 45 0.0 0.0 0.00 0.00 0.00 84 1020.6
20191213031520 45 112 0.0 1.0 0.00 0.00 0.00 84 1020.7
20191213031031 45 127 0.0 2.0 0.00 0.00 0.00 83 1020.8
20191213030524 45 0.0 0.0 0.00 0.00 0.00 82 1020.8
20191213030016 45 0.0 0.0 0.00 0.00 0.00 82 1020.8
20191213025528 46 0.0 0.0 0.00 0.00 0.00 82 1020.8
20191213025020 46 135 0.0 1.0 0.00 0.00 0.00 82 1020.8
20191213024531 46 97 1.0 2.0 0.00 0.00 0.00 82 1020.8
20191213024023 46 135 1.0 2.0 0.00 0.00 0.00 82 1020.8
20191213023516 46 111 0.0 1.0 0.00 0.00 0.00 82 1021.0
20191213023028 46 120 0.0 2.0 0.00 0.00 0.00 81 1021.0
20191213022520 46 0.0 0.0 0.00 0.00 0.00 81 1021.1
20191213022030 46 105 0.0 1.0 0.00 0.00 0.00 81 1021.1
20191213021523 46 120 1.0 1.0 0.00 0.00 0.00 81 1021.1
20191213021015 47 107 0.0 1.0 0.00 0.00 0.00 80 1021.1
20191213020526 47 111 1.0 1.0 0.00 0.00 0.00 80 1021.1
20191213020019 47 130 1.0 2.0 0.00 0.00 0.00 80 1021.3
20191213015529 47 131 1.0 2.0 0.00 0.00 0.00 80 1021.3
20191213015022 47 128 1.0 2.0 0.00 0.00 0.00 79 1021.3
20191213014526 47 126 1.0 1.0 0.00 0.00 0.00 79 1021.3
20191213014026 48 143 1.0 2.0 0.00 0.00 0.00 78 1021.4
20191213013524 48 154 1.0 2.0 0.00 0.00 0.00 78 1021.5
20191213013022 48 123 1.0 2.0 0.00 0.00 0.00 78 1021.5
20191213012522 48 161 1.0 2.0 0.00 0.00 0.00 78 1021.5
20191213012020 48 149 1.0 1.0 0.00 0.00 0.00 77 1021.5
20191213011519 48 129 1.0 2.0 0.00 0.00 0.00 77 1021.5
20191213011018 48 172 1.0 2.0 0.00 0.00 0.00 77 1021.5
20191213010517 48 152 1.0 1.0 0.00 0.00 0.00 77 1021.5
20191213010027 48 136 0.0 1.0 0.00 0.00 0.00 77 1021.5
20191213005520 48 118 1.0 2.0 0.00 0.00 0.00 76 1021.5
20191213005030 48 150 0.0 1.0 0.00 0.00 0.00 76 1021.5
20191213004523 49 135 0.0 1.0 0.00 0.00 0.00 75 1021.5
20191213004015 49 146 0.0 1.0 0.00 0.00 0.00 75 1021.5
20191213003526 49 0.0 0.0 0.00 0.00 0.00 74 1021.5
20191213003019 49 0.0 0.0 0.00 0.00 0.00 74 1021.5
20191213002529 50 0.0 0.0 0.00 0.00 0.00 73 1021.5
20191213002023 50 0.0 0.0 0.00 0.00 0.00 72 1021.5
20191213001533 50 0.0 0.0 0.00 0.00 0.00 71 1021.5
20191213001026 51 0.0 0.0 0.00 0.00 0.00 70 1021.5
20191213000519 51 123 0.0 1.0 0.00 0.00 0.00 70 1021.5
20191213000029 51 122 1.0 1.0 0.00 0.00 0.00 69 1021.6
20191212235522 52 111 0.0 1.0 0.00 0.00 0.00 68 1021.6
20191212235032 52 108 0.0 2.0 0.00 0.00 0.00 67 1021.7
20191212234526 53 123 0.0 1.0 0.00 0.00 0.00 66 1021.8